Location: Mountain View
(37.3861°N, 122.0839°W)
Time: 07:49:44
(UTC-07:00)

Envisat - Visible Passes

Search period start: 20 June 2018 00:00
Search period end: 30 June 2018 00:00
Orbit: 764 x 766 km, 98.2° (Epoch: 20 June)

Date Brightness Start Highest point End Pass type
(mag) Time Alt. Az. Time Alt. Az. Time Alt. Az.
20 Jun 5.6 21:41:47 10° SW 21:44:54 16° W 21:48:01 10° NW visible
21 Jun 4.5 21:03:14 10° SSW 21:07:55 37° W 21:12:38 10° NNW visible
23 Jun 5.4 21:29:53 10° SW 21:33:38 21° W 21:37:26 10° NW visible
25 Jun 5.9 21:58:05 10° WSW 21:59:28 11° W 22:00:52 10° WNW visible
26 Jun 5.0 21:18:10 10° SSW 21:22:24 27° W 21:26:40 10° NW visible
28 Jun 5.6 21:45:26 10° SW 21:48:11 15° W 21:50:58 10° WNW visible
29 Jun 4.7 21:06:36 10° SSW 21:11:11 34° W 21:15:47 10° NNW visible
